This is the latest recevied weather packets stored in our database for station/object W4MLN-3. If no packets are shown the sender has not sent any weather packets the latest 10 day(s).
| Time | Temp. | Humidity | Pressure | Rain* | Wind** | Luminosity | Snow |
|---|---|---|---|---|---|---|---|
| 1777731303 | 7.78° C | 44% | 1012.5 hPa | 0 mm | - | - | - |
| 1777731003 | 7.78° C | 45% | 1012.4 hPa | 0 mm | - | - | - |
| 1777730703 | 7.78° C | 44% | 1012.3 hPa | 0 mm | - | - | - |
| 1777730403 | 7.78° C | 47% | 1012.6 hPa | 0 mm | - | - | - |
| 1777730103 | 7.78° C | 46% | 1012.6 hPa | 0 mm | - | - | - |
| 1777729824 | 7.22° C | 48% | 1012.7 hPa | 0 mm | - | - | - |
| 1777729545 | 7.22° C | 47% | 1012.5 hPa | 0 mm | - | - | - |
| 1777729225 | 7.22° C | 49% | 1012.5 hPa | 0 mm | - | - | - |
| 1777728903 | 7.22° C | 52% | 1012.7 hPa | 0 mm | - | - | - |
| 1777728603 | 7.22° C | 50% | 1012.8 hPa | 0 mm | - | - | - |
| 1777728303 | 7.22° C | 54% | 1012.7 hPa | 0 mm | - | - | - |
| 1777728003 | 7.22° C | 53% | 1012.8 hPa | 0 mm | - | - | - |
| 1777727703 | 7.22° C | 52% | 1012.7 hPa | 0 mm | - | - | - |
| 1777727424 | 6.67° C | 52% | 1012.7 hPa | 0 mm | - | - | - |
| 1777727103 | 6.67° C | 52% | 1012.6 hPa | 0 mm | - | - | - |
| 1777726803 | 6.67° C | 51% | 1012.8 hPa | 0 mm | - | - | - |
| 1777726503 | 6.67° C | 52% | 1012.7 hPa | 0 mm | - | - | - |
| 1777726204 | 6.67° C | 52% | 1012.7 hPa | 0 mm | - | - | - |
| 1777725903 | 6.67° C | 54% | 1012.6 hPa | 0 mm | - | - | - |
| 1777725603 | 6.11° C | 54% | 1012.5 hPa | 0 mm | - | - | - |
| 1777725303 | 6.11° C | 56% | 1012.4 hPa | 0 mm | - | - | - |
| 1777725003 | 6.11° C | 60% | 1012.3 hPa | 0 mm | - | - | - |
| 1777724703 | 6.11° C | 63% | 1012.2 hPa | 0 mm | - | - | - |
| 1777724403 | 6.11° C | 63% | 1012.2 hPa | 0 mm | - | - | - |
| 1777724103 | 6.11° C | 67% | 1012.4 hPa | 0 mm | - | - | - |
* Rain latest hour (hover to see other rain measurements)
** Current wind speed in m/s (hover to see current wind gust speed)